Weather History for K3R7 - January, 2013

Change the Weather History Date:

Tuesday, January 8, 2013

  Actual Average (KLCH) Record (KLCH)
Temperature  
Mean Temperature 55 °F 52 °F  
Max Temperature 62 °F 61 °F 79 °F (2012)
Min Temperature 48 °F 42 °F 21 °F (1970)
Degree Days  
Heating Degree Days 10 14  
Month to date heating degree days 112  
Since 1 July heating degree days 686  
Cooling Degree Days 0 0  
Month to date cooling degree days 0  
Year to date cooling degree days 0  
Growing Degree Days 5 (Base 50)    
Moisture  
Dew Point 54 °F    
Average Humidity 89    
Maximum Humidity 99    
Minimum Humidity 78    
Precipitation  
Precipitation 0.53 in 0.17 in 4.46 in (1992)
Month to date precipitation 1.40  
Year to date precipitation 1.40  
Snow  
Snow 0.00 in 0.00 in 0.00 in ()
Month to date snowfall 0.0  
Since 1 July snowfall T  
Snow Depth -    
Sea Level Pressure  
Sea Level Pressure 30.07 in    
Wind  
Wind Speed 8 mph (East)    
Max Wind Speed 16 mph    
Max Gust Speed 22 mph    
Visibility 10 miles    
Events Rain , Thunderstorm    
T = Trace of Precipitation, MM = Missing Value Source: NWS Daily Summary

Daily Weather History Graph

Daily Weather History Graph

Search for Another Location

Airport or City:

Trip Planner

Search our weather history database for the weather conditions in past years. The results will help you decide how hot, cold, wet, or windy it might be!

Date:

Astronomy

Jan. 08, 2013 Rise Set
Actual Time 7:08 AM CST 5:27 PM CST
Civil Twilight 6:42 AM CST 5:53 PM CST
Nautical Twilight 6:12 AM CST 6:22 PM CST
Astronomical Twilight 5:43 AM CST 6:52 PM CST
Moon 3:43 AM CST (1/8) 2:29 PM CST (1/8)
Length of Visible Light 11h 11m
Length of Day
10h 18m
Waning Crescent, 13% of the Moon is Illuminated
Jan 8
Waning Crescent
Jan 11
New
Jan 18
First Quarter
Jan 26
Full
Feb 3
Last Quarter

Hourly Weather History & Observations

Time (CST) Temp. Dew Point Humidity Pressure Visibility Wind Dir Wind Speed Gust Speed Precip Events Conditions
12:15 AM 49.5 °F 43.0 °F 78% 30.13 in 10.0 mi NE 4.6 mph - N/A   Mostly Cloudy
12:55 AM 49.3 °F 43.7 °F 81% 30.12 in 10.0 mi East 3.5 mph - N/A   Mostly Cloudy
1:15 AM 49.1 °F 43.3 °F 81% 30.12 in 10.0 mi Calm Calm - N/A   Mostly Cloudy
1:35 AM 48.9 °F 43.3 °F 81% 30.10 in 10.0 mi ENE 4.6 mph - N/A   Scattered Clouds
1:55 AM 49.5 °F 43.7 °F 81% 30.11 in 10.0 mi NE 3.5 mph - N/A   Clear
2:15 AM 49.3 °F 43.9 °F 82% 30.10 in 10.0 mi ENE 4.6 mph - N/A   Clear
2:35 AM 49.5 °F 44.6 °F 83% 30.10 in 10.0 mi East 8.1 mph - N/A   Clear
2:55 AM 49.5 °F 44.8 °F 84% 30.10 in 10.0 mi ENE 5.8 mph - N/A   Clear
3:15 AM 50.2 °F 45.1 °F 83% 30.10 in 10.0 mi East 4.6 mph - N/A   Scattered Clouds
3:35 AM 50.5 °F 45.5 °F 83% 30.10 in 10.0 mi ENE 4.6 mph - N/A   Overcast
3:55 AM 50.7 °F 45.7 °F 83% 30.09 in 10.0 mi East 5.8 mph - N/A   Overcast
4:15 AM 50.9 °F 46.2 °F 84% 30.08 in 10.0 mi East 5.8 mph - N/A   Scattered Clouds
4:35 AM 51.1 °F 46.6 °F 85% 30.08 in 10.0 mi East 6.9 mph - N/A   Clear
4:55 AM 51.4 °F 46.9 °F 85% 30.07 in 10.0 mi East 6.9 mph - N/A   Scattered Clouds
5:15 AM 51.3 °F 46.9 °F 85% 30.08 in 10.0 mi East 8.1 mph - N/A   Clear
5:35 AM 51.4 °F 47.3 °F 86% 30.07 in 10.0 mi East 9.2 mph - N/A   Clear
5:55 AM 51.8 °F 47.3 °F 85% 30.08 in 10.0 mi East 5.8 mph - N/A   Scattered Clouds
6:15 AM 51.8 °F 47.3 °F 85% 30.08 in 10.0 mi East 9.2 mph - N/A   Mostly Cloudy
6:35 AM 51.8 °F 47.3 °F 85% 30.08 in 10.0 mi East 10.4 mph - N/A   Mostly Cloudy
6:55 AM 52.0 °F 47.3 °F 84% 30.10 in 10.0 mi East 6.9 mph - N/A   Scattered Clouds
7:15 AM 51.6 °F 47.1 °F 85% 30.10 in 10.0 mi ENE 8.1 mph - N/A   Clear
7:35 AM 51.3 °F 47.3 °F 86% 30.11 in 10.0 mi East 6.9 mph - N/A   Scattered Clouds
7:55 AM 52.7 °F 47.5 °F 82% 30.10 in 10.0 mi East 11.5 mph - N/A   Scattered Clouds
8:15 AM 53.4 °F 47.5 °F 80% 30.11 in 10.0 mi East 10.4 mph - N/A   Scattered Clouds
8:35 AM 54.0 °F 48.2 °F 81% 30.12 in 10.0 mi East 11.5 mph - N/A   Mostly Cloudy
8:55 AM 54.1 °F 48.2 °F 80% 30.13 in 10.0 mi East 11.5 mph - N/A   Overcast
9:15 AM 55.0 °F 48.9 °F 80% 30.14 in 10.0 mi ESE 9.2 mph - N/A   Overcast
9:35 AM 55.9 °F 49.8 °F 80% 30.14 in 10.0 mi East 10.4 mph - N/A   Mostly Cloudy
9:55 AM 57.4 °F 51.1 °F 79% 30.13 in 10.0 mi ESE 15.0 mph 19.6 mph N/A   Mostly Cloudy
10:15 AM 58.5 °F 52.5 °F 81% 30.12 in 10.0 mi East 16.1 mph - N/A   Scattered Clouds
10:35 AM 59.0 °F 53.6 °F 82% 30.11 in 10.0 mi ESE 15.0 mph 20.7 mph N/A   Scattered Clouds
10:55 AM 60.3 °F 54.9 °F 82% 30.11 in 10.0 mi East 12.7 mph - N/A   Mostly Cloudy
11:15 AM 61.0 °F 56.5 °F 85% 30.10 in 10.0 mi ESE 11.5 mph - N/A Thunderstorm Overcast
11:35 AM 60.8 °F 58.3 °F 91% 30.10 in 10.0 mi ESE 15.0 mph 20.7 mph 0.01 in   Overcast
11:55 AM 60.4 °F 58.1 °F 92% 30.08 in 10.0 mi ESE 12.7 mph - 0.01 in   Overcast
12:35 PM 61.3 °F 58.5 °F 90% 30.04 in 10.0 mi East 13.8 mph 19.6 mph N/A   Overcast
12:55 PM 62.1 °F 59.0 °F 90% 30.04 in 10.0 mi East 10.4 mph - N/A   Overcast
1:15 PM 61.9 °F 59.2 °F 91% 30.03 in 10.0 mi East 11.5 mph - N/A   Overcast
1:55 PM 61.7 °F 59.2 °F 91% 30.03 in 10.0 mi East 10.4 mph - N/A   Overcast
2:15 PM 61.7 °F 59.5 °F 93% 30.02 in 10.0 mi East 10.4 mph 17.3 mph N/A   Overcast
2:35 PM 61.9 °F 59.9 °F 93% 30.02 in 10.0 mi ESE 12.7 mph - N/A   Overcast
2:55 PM 61.3 °F 59.9 °F 95% 30.00 in 10.0 mi East 12.7 mph 17.3 mph N/A   Overcast
3:15 PM 61.0 °F 59.9 °F 96% 29.99 in 10.0 mi East 10.4 mph - N/A   Overcast
3:35 PM 60.8 °F 59.9 °F 97% 29.99 in 10.0 mi East 10.4 mph - N/A   Drizzle
3:55 PM 60.4 °F 59.9 °F 98% 30.02 in 10.0 mi ENE 6.9 mph - N/A   Light Drizzle
4:15 PM 60.8 °F 60.1 °F 97% 30.02 in 10.0 mi East 9.2 mph - N/A Rain Light Rain
4:35 PM 61.0 °F 60.4 °F 98% 30.02 in 10.0 mi East 10.4 mph - N/A Rain Light Rain
4:55 PM 61.2 °F 60.6 °F 98% 30.02 in 10.0 mi ESE 8.1 mph - N/A   Mostly Cloudy
5:15 PM 61.7 °F 61.0 °F 97% 30.02 in 10.0 mi ESE 13.8 mph - 0.03 in Rain Rain
5:35 PM 61.9 °F 61.2 °F 97% 30.02 in 7.0 mi ESE 11.5 mph - 0.09 in Rain Rain
5:55 PM 61.7 °F 61.0 °F 97% 30.02 in 10.0 mi ESE 12.7 mph - 0.16 in Rain Rain
6:15 PM 61.3 °F 61.0 °F 99% 30.02 in 10.0 mi ESE 15.0 mph 20.7 mph 0.02 in Rain Light Rain
6:35 PM 61.2 °F 60.8 °F 99% 30.03 in 10.0 mi SE 12.7 mph 20.7 mph 0.03 in Rain Light Rain
6:55 PM 61.0 °F 60.4 °F 98% 30.04 in 10.0 mi SE 11.5 mph - 0.04 in Rain Light Rain
7:15 PM 60.8 °F 60.1 °F 97% 30.03 in 10.0 mi ESE 11.5 mph - 0.03 in Rain Light Rain
7:55 PM 61.0 °F 60.8 °F 99% 30.06 in 10.0 mi ESE 13.8 mph - 0.06 in Rain Light Rain
8:15 PM 61.2 °F 60.8 °F 99% 30.07 in 10.0 mi ESE 13.8 mph - 0.03 in Rain Light Rain
8:35 PM 61.2 °F 60.8 °F 99% 30.07 in 10.0 mi ESE 16.1 mph - 0.05 in Rain Light Rain
8:55 PM 61.2 °F 60.8 °F 99% 30.07 in 10.0 mi ESE 12.7 mph - 0.06 in Rain Light Rain
9:15 PM 61.3 °F 60.8 °F 98% 30.08 in 10.0 mi ESE 12.7 mph 17.3 mph 0.03 in Rain Light Rain
9:35 PM 61.7 °F 60.8 °F 97% 30.07 in 7.0 mi ESE 15.0 mph - 0.08 in Rain Rain
9:55 PM 61.7 °F 61.0 °F 97% 30.07 in 10.0 mi ESE 13.8 mph 21.9 mph 0.12 in Rain Light Rain
10:15 PM 61.7 °F 61.0 °F 97% 30.07 in 10.0 mi ESE 16.1 mph 20.7 mph 0.02 in Rain Light Rain
10:35 PM 61.7 °F 61.2 °F 98% 30.06 in 10.0 mi ESE 15.0 mph 21.9 mph 0.04 in Rain Light Rain
10:55 PM 61.9 °F 61.2 °F 97% 30.06 in 10.0 mi ESE 12.7 mph - 0.05 in Rain Light Rain
11:55 PM 61.9 °F 61.2 °F 97% 30.02 in 10.0 mi East 15.0 mph - 0.03 in   Clear